Location: Codford Saint Peter
(51.1597°N, 2.0531°W)
Time: 06:07:44
(UTC+00:00)

USA 186 - Pass Details

Date: 18 September 2020
Orbit: 261 x 425 km, 96.9° (Epoch: 12 October)

Event Time Altitude Azimuth Distance (km) Brightness Sun altitude
Exits shadow 18:49:23 - 133° (SE) 1,882 4.5 -6.2°
Reaches altitude 10° 18:50:30 10° 124° (SE) 1,458 3.9 -6.4°
Maximum altitude 18:53:08 25° 67° (ENE) 882 2.9 -6.8°
Drops below altitude 10° 18:55:52 10° 10° (N) 1,519 4.6 -7.2°
Sets 18:58:07 0° 357° (N) 2,404 5.8 -7.6°
